Location: Dompnac
(44.5644°N, 4.1026°E)
Time: 18:59:55
(UTC+00:00)

Cosmos 1634 Rocket - Pass Details

Date: 17 January 2021
Orbit: 961 x 991 km, 82.9° (Epoch: 05 March)

Event Time Altitude Azimuth Distance (km) Brightness Sun altitude
Rises 18:38:18 0° 341° (NNW) 3,673 7.2 -22.0°
Reaches altitude 10° 18:41:09 10° 331° (NNW) 2,726 6.6 -22.5°
Maximum altitude 18:46:17 28° 275° (W) 1,757 6.0 -23.4°
Drops below altitude 10° 18:51:25 10° 219° (SW) 2,728 6.9 -24.4°
Sets 18:54:17 0° 208° (SSW) 3,676 7.5 -24.9°
